[[{"header":{"parameterUnit":"m.s-1","parameterCategory":1,"la1":30.2992,"la2":30.254,"lo1":-89.0895,"lo2":-89.0443,"dy":0.0025,"dx":0.0025,"nx":19,"ny":19,"refTime":"2026-04-11T03:00:00:Z","depth":0,"parameterNumber":2,"parameterNumberName":"U-component_of_WINDS"},"data":[0,0,0,-1.5374,-1.5374,-1.5386,-1.5386,-1.5424,-1.5424,0,0,0,0,0,0,0,0,0,0,0,-1.5384,-1.5385,-1.5374,-1.5374,-1.5386,-1.5386,-1.5424,-1.5424,0,0,0,0,0,0,0,0,0,0,0,-1.5384,-1.5385,-1.5386,-1.5374,-1.5386,-1.5386,-1.5424,-1.5407,0,0,0,0,0,0,0,0,0,0,-1.5392,-1.5415,-1.5385,-1.5386,-1.5375,-1.5386,-1.5386,-1.5406,-1.5408,-1.5429,0,-1.5451,0,-1.5438,-1.5429,-1.5429,0,0,0,-1.5364,-1.5413,-1.5403,-1.5386,-1.5375,-1.5386,-1.5378,-1.5407,-1.5409,-1.5432,-1.5451,-1.5452,-1.5439,-1.5429,-1.5429,-1.5584,-1.5585,0,0,-1.5364,-1.5394,-1.5402,-1.5406,-1.5405,-1.5377,-1.5378,-1.5408,-1.5431,-1.5451,-1.5452,-1.544,-1.5429,-1.543,-1.5583,-1.5584,0,0,0,-1.5369,-1.5394,-1.5383,-1.5405,-1.5405,-1.5378,-1.5379,-1.5429,-1.5423,-1.5452,-1.544,-1.543,-1.543,-1.5581,-1.5583,-1.5674,0,0,0,-1.5368,-1.5397,-1.5383,-1.5402,-1.5405,-1.5417,-1.54,-1.5421,-1.5424,-1.544,-1.543,-1.5431,-1.558,-1.5582,-1.5669,-1.5713,0,0,0,-1.5379,-1.5398,-1.5404,-1.5404,-1.541,-1.5416,-1.5411,-1.5421,-1.5417,-1.5429,-1.5431,-1.5579,-1.5582,-1.5664,-1.5705,-1.5765,0,0,0,-1.5399,-1.5484,-1.5406,-1.5495,-1.541,-1.5471,-1.5411,-1.5455,-1.5476,-1.543,-1.558,-1.5583,-1.5662,-1.57,-1.576,-1.5823,-1.5851,0,0,-1.5523,-1.55,-1.555,-1.5481,-1.5564,-1.5467,-1.5564,-1.5554,-1.5527,-1.5567,-1.557,-1.5671,-1.5704,-1.5764,-1.5994,-1.6017,0,0,0,-1.5599,-1.5636,-1.5651,-1.5673,-1.5667,-1.5667,-1.5639,-1.5635,-1.5668,-1.5553,-1.5705,-1.5725,-1.5758,-1.5788,-1.5807,-1.5835,-1.5597,-1.5596,-1.5596,-1.582,-1.5781,-1.5862,-1.5825,-1.5846,-1.5816,-1.5831,-1.5821,-1.5775,-1.5811,-1.5824,-1.5968,-1.6003,-1.6018,-1.6048,-1.5851,-1.5852,-1.5852,-1.5852,-1.6,-1.6048,-1.5983,-1.604,-1.5998,-1.6045,-1.6019,-1.5985,-1.6024,-1.5955,-1.5983,-1.5915,-1.6044,-1.6068,-1.5859,-1.5857,-1.5857,-1.5856,-1.5856,-1.6144,-1.616,-1.6153,-1.6181,-1.6206,-1.6164,-1.6205,-1.6164,-1.6126,-1.6153,-1.6164,-1.6163,-1.6159,-1.6161,-1.6161,-1.6162,-1.6162,-1.6163,-1.6163,-1.6297,-1.6286,-1.6325,-1.6326,-1.6335,-1.6342,-1.6312,-1.632,-1.6319,-1.6286,-1.6286,-1.6239,-1.6062,-1.6021,-1.6171,-1.6169,-1.6168,-1.6167,-1.6167,-1.6501,-1.6448,-1.6508,-1.6517,-1.6515,-1.6545,-1.6491,-1.6511,-1.6512,-1.6534,-1.6479,-1.6353,-1.6327,-1.6312,-1.6278,-1.6485,-1.6485,-1.6485,-1.6485,-1.6625,-1.6606,-1.6659,-1.6677,-1.6689,-1.6647,-1.6718,-1.6696,-1.6665,-1.6663,-1.6626,-1.6576,-1.6562,-1.6544,-1.6523,-1.6491,-1.6748,-1.6748,-1.6748,-1.675,-1.673,-1.6799,-1.6767,-1.6762,-1.676,-1.6826,-1.685,-1.6803,-1.6758,-1.6662,-1.6651,-1.6569,-1.6544,-1.6501,-1.647,-1.6409,0,0]},{"header":{"parameterUnit":"m.s-1","parameterCategory":1,"la1":30.2992,"la2":30.254,"lo1":-89.0895,"lo2":-89.0443,"dy":0.0025,"dx":0.0025,"nx":19,"ny":19,"refTime":"2026-04-11T03:00:00:Z","depth":0,"parameterNumber":3,"parameterNumberName":"V-component_of_WINDS"},"data":[0,0,0,-1.8393,-1.8394,-1.8414,-1.8414,-1.845,-1.845,0,0,0,0,0,0,0,0,0,0,0,-1.8394,-1.8394,-1.8393,-1.8394,-1.8414,-1.8414,-1.845,-1.845,0,0,0,0,0,0,0,0,0,0,0,-1.8394,-1.8394,-1.8395,-1.8394,-1.8414,-1.8414,-1.845,-1.8431,0,0,0,0,0,0,0,0,0,0,-1.841,-1.8417,-1.8394,-1.8395,-1.8394,-1.8414,-1.8414,-1.843,-1.8432,-1.8445,0,-1.8459,0,-1.8455,-1.8454,-1.8454,0,0,0,-1.8389,-1.8415,-1.8414,-1.8395,-1.8395,-1.8414,-1.8404,-1.8431,-1.8434,-1.8448,-1.846,-1.8461,-1.8456,-1.8454,-1.8454,-1.8547,-1.8548,0,0,-1.8388,-1.8401,-1.8413,-1.8416,-1.8414,-1.8403,-1.8404,-1.8432,-1.8445,-1.846,-1.8461,-1.8457,-1.8454,-1.8455,-1.8547,-1.8547,0,0,0,-1.8388,-1.8401,-1.8399,-1.8415,-1.8418,-1.8404,-1.8405,-1.8444,-1.8443,-1.8462,-1.8457,-1.8454,-1.8455,-1.8546,-1.8547,-1.8593,0,0,0,-1.8387,-1.8401,-1.8399,-1.8407,-1.8418,-1.8431,-1.8417,-1.8441,-1.8443,-1.8457,-1.8454,-1.8455,-1.8545,-1.8546,-1.859,-1.8613,0,0,0,-1.839,-1.8401,-1.8406,-1.8408,-1.8417,-1.8431,-1.8431,-1.8441,-1.8441,-1.8454,-1.8456,-1.8545,-1.8546,-1.8588,-1.8609,-1.8642,0,0,0,-1.8398,-1.8447,-1.8407,-1.846,-1.8417,-1.8459,-1.843,-1.8461,-1.8477,-1.8455,-1.8545,-1.8547,-1.8587,-1.8606,-1.864,-1.8673,-1.8688,0,0,-1.8467,-1.8456,-1.8486,-1.8451,-1.8503,-1.8455,-1.8514,-1.8517,-1.8505,-1.8534,-1.8536,-1.8591,-1.8609,-1.8642,-1.8766,-1.8778,0,0,0,-1.8512,-1.8534,-1.8545,-1.8562,-1.8564,-1.8569,-1.8561,-1.8562,-1.8585,-1.8523,-1.8611,-1.8621,-1.864,-1.8656,-1.8666,-1.8682,-1.8554,-1.8554,-1.8554,-1.863,-1.8613,-1.8662,-1.8648,-1.8664,-1.8654,-1.8666,-1.8665,-1.8643,-1.8665,-1.8674,-1.8751,-1.877,-1.8777,-1.8794,-1.8689,-1.8689,-1.8689,-1.8689,-1.8731,-1.876,-1.8729,-1.8766,-1.8747,-1.8777,-1.877,-1.8753,-1.8779,-1.8743,-1.8759,-1.8722,-1.8791,-1.8805,-1.8693,-1.8692,-1.8692,-1.8691,-1.8691,-1.8808,-1.8819,-1.8818,-1.884,-1.8858,-1.8841,-1.8867,-1.8849,-1.8832,-1.8848,-1.8855,-1.8854,-1.8852,-1.8852,-1.8852,-1.8853,-1.8853,-1.8853,-1.8853,-1.8888,-1.8886,-1.891,-1.8917,-1.8925,-1.8933,-1.8923,-1.893,-1.8934,-1.8919,-1.8919,-1.8895,-1.8801,-1.8778,-1.8857,-1.8857,-1.8856,-1.8856,-1.8855,-1.8999,-1.8971,-1.9008,-1.9016,-1.9022,-1.9042,-1.9017,-1.9034,-1.9037,-1.905,-1.9023,-1.8955,-1.8943,-1.8934,-1.8915,-1.9026,-1.9026,-1.9026,-1.9026,-1.9065,-1.9056,-1.909,-1.9104,-1.9115,-1.9097,-1.9139,-1.9132,-1.912,-1.9121,-1.9102,-1.9075,-1.9067,-1.9059,-1.9048,-1.903,-1.9167,-1.9167,-1.9167,-1.9132,-1.9123,-1.9164,-1.9151,-1.9154,-1.9158,-1.9197,-1.9214,-1.9194,-1.9173,-1.9121,-1.9115,-1.9072,-1.9058,-1.9037,-1.902,-1.8987,0,0]}]]